Regional Weather Roundup
Issued by NWS

Home | Current Version | Previous Version | Text Only | Print | Product List | Glossary Off
Versions: 1 2 3 4 5 6 7 8 9 10 11 12 13 14 15 16 17 18 19 20 21 22 23 24 25 26 27 28 29 30 31 32 33 34 35 36 37 38 39 40 41 42 43 44 45 46 47 48 49 50

000
ASUS44 KMEG 221710
RWRTN
TENNESSEE HOURLY STATE WEATHER ROUNDUP
NATIONAL WEATHER SERVICE MEMPHIS TN
1200 PM CDT FRI SEP 22 2017

TNZ002-004-019-021-049-052-054-088>092-221800-
WEST TENNESSEE

CITY           SKY/WX    TMP DP  RH WIND       PRES   REMARKS
MEMPHIS INTL   MOSUNNY   88  68  51 E5        30.05F HX  91
NWS MEMPHIS      N/A     88 N/A N/A MISG        N/A
JACKSON        SUNNY     88  72  58 VRB3      30.06F HX  94
DYERSBURG      SUNNY     87  72  60 NE5       30.07F HX  93
SOMERVILLE     SUNNY     86  70  58 CALM      30.05F HX  90
COVINGTON      SUNNY     86  72  62 CALM      30.05F HX  92
BOLIVAR        SUNNY     86  70  58 E6        30.05F HX  90
PARIS          SUNNY     86  68  54 E7        30.06F
HUNTINGDON     SUNNY     86  70  58 NE7       30.06F HX  90
LEXINGTON      SUNNY     86  70  58 S3        30.06F HX  90
SAVANNAH       SUNNY     86  72  62 CALM      30.05F HX  92
$$

TNZ008-025-027-028-033-062-065-066-221800-
NORTH MIDDLE TENNESSEE

CITY           SKY/WX    TMP DP  RH WIND       PRES   REMARKS
NASHVILLE      MOSUNNY   87  66  49 CALM      30.07F
PORTLAND       SUNNY     84  68  58 VRB5      30.08F
CLARKSVILLE    SUNNY     85  67  54 VRB3      30.07F
SMYRNA         MOSUNNY   85  68  55 CALM      30.09F
COOKEVILLE     SUNNY     82  66  57 CALM      30.09F
GALLATIN       SUNNY     86  68  54 CALM      30.09F
CROSSVILLE     PTSUNNY   78  65  63 CALM      30.15F
$$

TNZ061-075-076-078-094-096-097-221800-
SOUTH MIDDLE TENNESSEE

CITY           SKY/WX    TMP DP  RH WIND       PRES   REMARKS
FAYETTEVILLE   SUNNY     82  68  61 CALM      30.08F
TULLAHOMA      SUNNY     82  64  54 S5        30.10F
WINCHESTER     MOSUNNY   86  66  51 CALM      30.08F
MCMINNVILLE    SUNNY     84  70  61 VRB3      30.09F
COLUMBIA       SUNNY     84 N/A N/A E6        30.05F
SHELBYVILLE    SUNNY     84  66  54 CALM      30.08F
$$

TNZ017-018-042-046-047-221800-
NORTHEAST TENNESSEE

CITY           SKY/WX    TMP DP  RH WIND       PRES   REMARKS
TRI CITIES     MOSUNNY   83  65  54 CALM      30.13F
ELIZABETHTON   SUNNY     82  63  51 CALM      30.13F
$$

TNZ012-013-036-069-073-074-221800-
CENTRAL EAST TENNESSEE

CITY           SKY/WX    TMP DP  RH WIND       PRES   REMARKS
KNOXVILLE      MOSUNNY   83  65  54 CALM      30.09F
OAK RIDGE      SUNNY     85  65  51 CALM      30.11F
DOWNTOWN KNOXV SUNNY     84  68  58 CALM      30.09F
GATLINBURG     SUNNY     84  63  48 CALM      30.09F
MORRISTOWN     SUNNY     84  63  48 CALM      30.10F
JACKSBORO      SUNNY     82  66  57 CALM      30.14F
$$

TNZ083-085-099-221800-
SOUTHEAST TENNESSEE

CITY           SKY/WX    TMP DP  RH WIND       PRES   REMARKS
CHATTANOOGA    MOSUNNY   84  65  52 CALM      30.08F
DAYTON         SUNNY     84  70  61 CALM      30.08F
$$

SKY/WX REPORTED AS FAIR MEANS FEW OR NO CLOUDS BELOW
12 THOUSAND FEET.





USA.gov is the U.S. government's official web portal to all federal, state and local government web resources and services.